• în România
  • Lista ţărilor
  • Pe 7 zile
  • Temperatura apei
  • Hartă satelitară
  • Meteo pe hartă
  • Widget-uri
  • user-avatar
    Intrare

    Meteo pe oră la Bolshie Shady

    Astăzi, 18 Octombrie, Joi

    Timp Temperatura Precipitaţii Vânt Presiune Umiditate
    00:00 +3°C° 0 mm 4 m/s 753 mmHg 81%
    01:00 +1°C° 0 mm 4 m/s 753 mmHg 83%
    02:00 +1°C° 0 mm 4 m/s 754 mmHg 85%
    03:00 +1°C° 0 mm 4 m/s 754 mmHg 86%
    04:00 +1°C° 0 mm 3 m/s 754 mmHg 90%
    05:00 +1°C° 0 mm 3 m/s 754 mmHg 91%
    06:00 0°C° 0 mm 4 m/s 754 mmHg 92%
    07:00 -1°C° 0 mm 4 m/s 754 mmHg 93%
    08:00 0°C° 0 mm 4 m/s 754 mmHg 89%
    09:00 +1°C° 0 mm 5 m/s 754 mmHg 85%
    10:00 +2°C° 0 mm 5 m/s 754 mmHg 82%
    11:00 +2°C° 0 mm 5 m/s 754 mmHg 79%
    12:00 +4°C° 0 mm 4 m/s 754 mmHg 76%
    13:00 +4°C° 0 mm 4 m/s 754 mmHg 73%
    14:00 +4°C° 0 mm 4 m/s 754 mmHg 73%
    15:00 +4°C° 0 mm 3 m/s 754 mmHg 73%
    16:00 +4°C° 0 mm 3 m/s 754 mmHg 73%
    17:00 +4°C° 0 mm 3 m/s 754 mmHg 78%
    18:00 +4°C° 0 mm 2 m/s 754 mmHg 82%
    19:00 +3°C° 0 mm 2 m/s 754 mmHg 87%
    20:00 +3°C° 0 mm 2 m/s 754 mmHg 87%
    21:00 +3°C° 0 mm 2 m/s 753 mmHg 88%
    22:00 +3°C° 0 mm 2 m/s 753 mmHg 88%
    23:00 +3°C° 0 mm 3 m/s 752 mmHg 87%

    Mâine, 19 Octombrie, Vineri

    Timp Temperatura Precipitaţii Vânt Presiune Umiditate
    00:00 +3°C° 0 mm 3 m/s 752 mmHg 86%
    01:00 +4°C° 0 mm 3 m/s 751 mmHg 84%
    02:00 +4°C° 0 mm 4 m/s 751 mmHg 86%
    03:00 +4°C° 0 mm 4 m/s 751 mmHg 87%
    04:00 +4°C° 0 mm 4 m/s 750 mmHg 88%
    05:00 +4°C° 0 mm 4 m/s 750 mmHg 90%
    06:00 +4°C° 0 mm 4 m/s 750 mmHg 92%
    07:00 +4°C° 0 mm 4 m/s 750 mmHg 94%
    08:00 +5°C° 0 mm 3 m/s 750 mmHg 93%
    09:00 +5°C° 0 mm 3 m/s 750 mmHg 93%
    10:00 +7°C° 0 mm 3 m/s 750 mmHg 92%
    11:00 +7°C° 0 mm 3 m/s 749 mmHg 91%
    12:00 +7°C° 0 mm 3 m/s 749 mmHg 91%
    13:00 +8°C° 0 mm 3 m/s 749 mmHg 90%
    14:00 +8°C° 0 mm 3 m/s 749 mmHg 90%
    15:00 +8°C° 0 mm 3 m/s 749 mmHg 89%
    16:00 +8°C° 0 mm 3 m/s 749 mmHg 89%
    17:00 +8°C° 0 mm 3 m/s 749 mmHg 90%
    18:00 +8°C° 0 mm 3 m/s 748 mmHg 91%
    19:00 +8°C° 0 mm 3 m/s 748 mmHg 92%
    20:00 +7°C° 0 mm 3 m/s 748 mmHg 92%
    21:00 +7°C° 0 mm 3 m/s 748 mmHg 93%
    22:00 +7°C° 0 mm 3 m/s 748 mmHg 93%
    23:00 +6°C° 0 mm 4 m/s 748 mmHg 94%

    Poimâine, 20 Octombrie, Sâmbătă

    Timp Temperatura Precipitaţii Vânt Presiune Umiditate
    00:00 +6°C° 0 mm 4 m/s 747 mmHg 94%
    01:00 +6°C° 0 mm 4 m/s 747 mmHg 94%
    02:00 +7°C° 0.3 mm 4 m/s 747 mmHg 95%
    03:00 +7°C° 0.3 mm 4 m/s 747 mmHg 96%
    04:00 +8°C° 0.3 mm 4 m/s 746 mmHg 96%
    05:00 +8°C° 0.7 mm 4 m/s 746 mmHg 96%
    06:00 +8°C° 0.7 mm 4 m/s 746 mmHg 96%
    07:00 +8°C° 0.7 mm 4 m/s 746 mmHg 97%
    08:00 +8°C° 1.4 mm 4 m/s 745 mmHg 96%
    09:00 +8°C° 1.4 mm 4 m/s 745 mmHg 96%
    10:00 +8°C° 1.4 mm 4 m/s 745 mmHg 96%
    11:00 +8°C° 1.2 mm 4 m/s 745 mmHg 93%
    12:00 +8°C° 1.2 mm 4 m/s 745 mmHg 90%
    13:00 +10°C° 1.2 mm 4 m/s 745 mmHg 87%
    14:00 +10°C° 0.2 mm 4 m/s 745 mmHg 84%
    15:00 +10°C° 0.2 mm 4 m/s 745 mmHg 80%
    16:00 +10°C° 0.2 mm 4 m/s 746 mmHg 77%
    17:00 +7°C° 0 mm 4 m/s 746 mmHg 80%
    18:00 +6°C° 0 mm 4 m/s 747 mmHg 82%
    19:00 +5°C° 0 mm 4 m/s 747 mmHg 85%
    20:00 +5°C° 0 mm 3 m/s 748 mmHg 86%
    21:00 +5°C° 0 mm 3 m/s 748 mmHg 87%
    22:00 +4°C° 0 mm 3 m/s 749 mmHg 88%
    23:00 +4°C° 0 mm 3 m/s 749 mmHg 88%

    21 Octombrie, Duminică

    Timp Temperatura Precipitaţii Vânt Presiune Umiditate
    00:00 +4°C° 0 mm 3 m/s 749 mmHg 89%
    01:00 +4°C° 0 mm 3 m/s 749 mmHg 89%
    02:00 +4°C° 0 mm 3 m/s 750 mmHg 91%
    03:00 +3°C° 0 mm 3 m/s 750 mmHg 93%
    04:00 +3°C° 0 mm 3 m/s 750 mmHg 94%
    05:00 +3°C° 0 mm 2 m/s 751 mmHg 95%
    06:00 +3°C° 0 mm 2 m/s 751 mmHg 95%
    07:00 +3°C° 0 mm 2 m/s 751 mmHg 96%
    08:00 +4°C° 0 mm 2 m/s 751 mmHg 93%
    09:00 +4°C° 0 mm 2 m/s 752 mmHg 90%
    10:00 +5°C° 0 mm 2 m/s 752 mmHg 88%
    11:00 +6°C° 0 mm 2 m/s 752 mmHg 85%
    12:00 +7°C° 0 mm 2 m/s 753 mmHg 83%
    13:00 +7°C° 0 mm 2 m/s 753 mmHg 80%
    14:00 +7°C° 0.1 mm 2 m/s 753 mmHg 80%
    15:00 +7°C° 0.1 mm 2 m/s 753 mmHg 81%
    16:00 +7°C° 0.1 mm 2 m/s 753 mmHg 81%
    17:00 +7°C° 0 mm 2 m/s 753 mmHg 83%
    18:00 +6°C° 0 mm 2 m/s 754 mmHg 85%
    19:00 +6°C° 0 mm 1 m/s 754 mmHg 87%
    20:00 +6°C° 0 mm 1 m/s 754 mmHg 88%
    21:00 +5°C° 0 mm 1 m/s 754 mmHg 90%
    22:00 +4°C° 0 mm 1 m/s 754 mmHg 91%
    23:00 +4°C° 0 mm 1 m/s 755 mmHg 91%

    22 Octombrie, Luni

    Timp Temperatura Precipitaţii Vânt Presiune Umiditate
    00:00 +4°C° 0 mm 1 m/s 755 mmHg 91%
    01:00 +4°C° 0 mm 1 m/s 755 mmHg 91%
    02:00 +2°C° 0 mm 0 m/s 755 mmHg 91%
    03:00 +2°C° 0 mm 0 m/s 755 mmHg 91%
    04:00 +2°C° 0 mm 0 m/s 755 mmHg 90%
    05:00 +2°C° 0 mm 0 m/s 755 mmHg 91%
    06:00 +2°C° 0 mm 0 m/s 755 mmHg 91%
    07:00 +1°C° 0 mm 0 m/s 755 mmHg 91%
    08:00 +2°C° 0 mm 0 m/s 755 mmHg 87%
    09:00 +4°C° 0 mm 1 m/s 755 mmHg 84%
    10:00 +6°C° 0 mm 1 m/s 755 mmHg 80%
    11:00 +6°C° 0 mm 1 m/s 755 mmHg 77%
    12:00 +7°C° 0 mm 1 m/s 755 mmHg 75%
    13:00 +7°C° 0 mm 2 m/s 755 mmHg 72%
    14:00 +6°C° 0 mm 2 m/s 755 mmHg 74%
    15:00 +6°C° 0 mm 2 m/s 755 mmHg 76%
    16:00 +6°C° 0 mm 2 m/s 754 mmHg 79%
    17:00 +6°C° 0 mm 2 m/s 754 mmHg 81%
    18:00 +5°C° 0 mm 2 m/s 754 mmHg 83%
    19:00 +5°C° 0 mm 2 m/s 754 mmHg 86%
    20:00 +5°C° 0 mm 2 m/s 754 mmHg 87%
    21:00 +4°C° 0 mm 2 m/s 753 mmHg 87%
    22:00 +3°C° 0 mm 3 m/s 753 mmHg 88%
    23:00 +3°C° 0 mm 3 m/s 753 mmHg 88%

    23 Octombrie, Marţi

    Timp Temperatura Precipitaţii Vânt Presiune Umiditate
    00:00 +3°C° 0 mm 3 m/s 753 mmHg 88%
    01:00 +1°C° 0 mm 4 m/s 752 mmHg 88%
    02:00 +1°C° 0 mm 4 m/s 752 mmHg 88%
    03:00 +1°C° 0 mm 4 m/s 752 mmHg 88%
    04:00 +1°C° 0 mm 4 m/s 751 mmHg 88%
    05:00 +3°C° 0 mm 4 m/s 751 mmHg 86%
    06:00 +2°C° 0 mm 5 m/s 751 mmHg 84%
    07:00 +3°C° 0 mm 5 m/s 750 mmHg 83%
    08:00 +5°C° 0 mm 5 m/s 750 mmHg 81%
    09:00 +5°C° 0 mm 5 m/s 750 mmHg 78%
    10:00 +6°C° 0 mm 5 m/s 750 mmHg 76%
    11:00 +7°C° 0 mm 5 m/s 750 mmHg 75%
    12:00 +8°C° 0 mm 5 m/s 750 mmHg 75%
    13:00 +9°C° 0 mm 5 m/s 750 mmHg 74%
    14:00 +9°C° 0 mm 5 m/s 750 mmHg 76%
    15:00 +10°C° 0 mm 4 m/s 749 mmHg 77%
    16:00 +10°C° 0 mm 4 m/s 749 mmHg 79%
    17:00 +10°C° 0 mm 4 m/s 749 mmHg 81%
    18:00 +9°C° 0 mm 3 m/s 750 mmHg 82%
    19:00 +9°C° 0 mm 3 m/s 750 mmHg 84%
    20:00 +9°C° 0 mm 3 m/s 750 mmHg 83%
    21:00 +8°C° 0 mm 3 m/s 749 mmHg 82%
    22:00 +8°C° 0 mm 3 m/s 749 mmHg 81%
    23:00 +8°C° 0 mm 3 m/s 749 mmHg 81%
    Arată mai mult